| time (UTC) | temp F | wind direction | speed knots | gust knots | rain 1hr in | rain 24hr in | rain mn in | humidity % | barometer mb |
| 20260504013028 | 50 | 226 | 0.0 | 0.0 | 0.00 | 0.00 | 0.00 | 67 | 1013.4 |
| 20260504011521 | 52 | 226 | 0.0 | 0.0 | 0.00 | 0.00 | 0.00 | 61 | 1013.4 |
| 20260504010020 | 55 | 226 | 0.0 | 0.0 | 0.00 | 0.00 | 0.00 | 57 | 1013.4 |
| 20260504004520 | 55 | 228 | 0.0 | 1.7 | 0.00 | 0.00 | 0.00 | 47 | 1013.3 |
| 20260504003018 | 56 | 231 | 0.0 | 0.9 | 0.00 | 0.00 | 0.00 | 45 | 1013.2 |
| 20260504001519 | 57 | 240 | 0.0 | 1.7 | 0.00 | 0.00 | 0.00 | 44 | 1013.3 |
| 20260504000017 | 57 | 252 | 0.0 | 4.3 | 0.00 | 0.00 | 0.00 | 43 | 1013.3 |
| 20260503234517 | 57 | 215 | 0.0 | 5.2 | 0.00 | 0.00 | 0.00 | 44 | 1013.3 |
| 20260503233016 | 58 | 230 | 0.0 | 6.1 | 0.00 | 0.00 | 0.00 | 41 | 1013.3 |
| 20260503231520 | 58 | 232 | 0.0 | 7.8 | 0.00 | 0.00 | 0.00 | 41 | 1013.4 |
| 20260503230016 | 59 | 225 | 0.9 | 8.7 | 0.00 | 0.00 | 0.00 | 40 | 1013.4 |
| 20260503224515 | 60 | 193 | 4.3 | 10.4 | 0.00 | 0.00 | 0.00 | 38 | 1013.4 |
| 20260503223013 | 61 | 254 | 3.5 | 9.6 | 0.00 | 0.00 | 0.00 | 38 | 1013.4 |
| 20260503221513 | 60 | 242 | 0.9 | 10.4 | 0.00 | 0.00 | 0.00 | 37 | 1013.5 |
| 20260503220013 | 60 | 244 | 0.9 | 11.3 | 0.00 | 0.00 | 0.00 | 38 | 1013.5 |
| 20260503214512 | 60 | 229 | 1.7 | 9.6 | 0.00 | 0.00 | 0.00 | 37 | 1013.4 |
| 20260503213011 | 60 | 266 | 2.6 | 13.0 | 0.00 | 0.00 | 0.00 | 36 | 1013.3 |
| 20260503211509 | 60 | 275 | 3.5 | 11.3 | 0.00 | 0.00 | 0.00 | 39 | 1013.4 |
| 20260503210010 | 60 | 235 | 3.5 | 9.6 | 0.00 | 0.00 | 0.00 | 37 | 1013.4 |
| 20260503204507 | 60 | 184 | 6.1 | 18.2 | 0.00 | 0.00 | 0.00 | 37 | 1013.6 |
| 20260503203005 | 60 | 282 | 0.0 | 12.2 | 0.00 | 0.00 | 0.00 | 38 | 1013.7 |
| 20260503201504 | 60 | 243 | 0.9 | 13.0 | 0.00 | 0.00 | 0.00 | 40 | 1014.0 |
| 20260503200003 | 60 | 268 | 2.6 | 12.2 | 0.00 | 0.00 | 0.00 | 39 | 1014.3 |
| 20260503194601 | 60 | 263 | 0.0 | 8.7 | 0.00 | 0.00 | 0.00 | 40 | 1014.4 |
| 20260503193111 | 60 | 209 | 0.0 | 12.2 | 0.00 | 0.00 | 0.00 | 41 | 1014.7 |
| 20260503191559 | 59 | 195 | 4.3 | 11.3 | 0.00 | 0.00 | 0.00 | 39 | 1014.9 |
| 20260503190106 | 60 | 315 | 4.3 | 13.9 | 0.00 | 0.00 | 0.00 | 39 | 1015.2 |
| 20260503184553 | 60 | 275 | 5.2 | 13.0 | 0.00 | 0.00 | 0.00 | 41 | 1015.4 |
| 20260503183059 | 59 | 314 | 4.3 | 17.4 | 0.00 | 0.00 | 0.00 | 41 | 1015.5 |
| 20260503181549 | 59 | 256 | 4.3 | 13.0 | 0.00 | 0.00 | 0.00 | 41 | 1015.6 |
| 20260503180055 | 58 | 197 | 2.6 | 10.4 | 0.00 | 0.00 | 0.00 | 42 | 1015.8 |
| 20260503174544 | 58 | 198 | 2.6 | 13.0 | 0.00 | 0.00 | 0.00 | 42 | 1016.2 |
| 20260503173104 | 58 | 250 | 2.6 | 10.4 | 0.00 | 0.00 | 0.00 | 42 | 1016.3 |
| 20260503171546 | 57 | 224 | 2.6 | 13.9 | 0.00 | 0.00 | 0.00 | 43 | 1016.4 |
| 20260503081502 | 30 | 300 | 0.0 | 0.0 | 0.00 | 0.01 | 0.00 | 85 | 1017.1 |
| 20260503071607 | 32 | 300 | 0.0 | 0.0 | 0.00 | 0.01 | 0.00 | 84 | 1016.9 |
| 20260503054545 | 34 | 300 | 0.0 | 0.0 | 0.00 | 0.01 | 0.00 | 84 | 1017.1 |
| 20260503053046 | 34 | 300 | 0.0 | 0.0 | 0.00 | 0.01 | 0.00 | 84 | 1017.2 |
| 20260503051550 | 34 | 300 | 0.0 | 0.0 | 0.00 | 0.01 | 0.00 | 84 | 1017.2 |
| 20260503050042 | 34 | 300 | 0.0 | 0.0 | 0.00 | 0.01 | 0.00 | 84 | 1017.3 |
| 20260503044541 | 34 | 300 | 0.0 | 0.0 | 0.00 | 0.01 | 0.00 | 84 | 1017.4 |
| 20260503043039 | 34 | 300 | 0.0 | 0.0 | 0.00 | 0.01 | 0.00 | 83 | 1017.4 |
| 20260503041539 | 35 | 300 | 0.0 | 0.0 | 0.00 | 0.01 | 0.00 | 83 | 1017.4 |
| 20260503040037 | 35 | 300 | 0.0 | 0.0 | 0.00 | 0.01 | 0.00 | 83 | 1017.5 |
| 20260503034537 | 35 | 300 | 0.0 | 0.0 | 0.00 | 0.01 | 0.01 | 82 | 1017.5 |
| 20260503033043 | 35 | 300 | 0.0 | 0.0 | 0.00 | 0.01 | 0.01 | 82 | 1017.5 |
| 20260503031535 | 36 | 300 | 0.0 | 0.0 | 0.00 | 0.01 | 0.01 | 81 | 1017.4 |
| 20260503030035 | 36 | 300 | 0.0 | 0.0 | 0.00 | 0.01 | 0.01 | 80 | 1017.5 |
| 20260503024537 | 37 | 300 | 0.0 | 0.0 | 0.00 | 0.01 | 0.01 | 80 | 1017.5 |
| 20260503023033 | 38 | 300 | 0.0 | 0.0 | 0.00 | 0.01 | 0.01 | 80 | 1017.6 |
| 20260503021533 | 39 | 300 | 0.0 | 0.0 | 0.00 | 0.01 | 0.01 | 79 | 1017.6 |
| 20260503020034 | 39 | 300 | 0.0 | 0.0 | 0.00 | 0.01 | 0.01 | 79 | 1017.6 |
| 20260503014549 | 39 | 300 | 0.0 | 0.0 | 0.00 | 0.01 | 0.01 | 78 | 1017.6 |